Weather in Imerovigli

Greece     36°25′54″N   25°25′29″E
temp.,
°C
wind,
m/s
gust,
m/s
humid.,
%
clouds,
%
prec.,
mm/h
press.,
hPa
HPBL,
m
8 march, mon
mon823:00+13n78670 0.0 1020676
02:00+13n66640 0.0 1020714
05:00+13n56630 0.0 1018736
08:00+13n44632 0.0 1019782
11:00+13nne336567 0.0 1019631
14:00+13n226483 0.0 1017586
17:00+13ne3267100 0.0 1016575
20:00+13ne3370100 0.0 1016526
9 march, tue
tue923:00+14ne3366100 0.0 1016534
02:00+14ne3464100 0.0 1015554
05:00+14ne566595 0.0 1014649
08:00+14ne786883 0.0 1014667
11:00+15ne786694 0.0 1015608
14:00+14ne886662 0.0 1014584
17:00+15ne77650 0.0 1014550
20:00+15ne67658 0.0 1015464
10 march, wed
wed1023:00+15ne556690 0.0 1015367
02:00+15ne556695 0.0 1014356
05:00+15ne4464100 0.0 1013358
08:00+16ne236276 0.0 1014357
11:00+16n11590 0.0 1014263
14:00+16wnw32610 0.0 1014379
17:00+16w34650 0.0 1013546
20:00+16wsw677133 0.0 1014604
11 march, thu
thu1123:00+16wsw788096 0.0 1015596
02:00+16nw797787 0.0 1015553
05:00+16n787671 0.0 1015657
08:00+15n8107783 0.0 1017837
11:00+15n9107064 0.0 1020971
14:00+14n9116581 0.0 10201107
17:00+14n1012620 0.0 10211035
20:00+13n911590 0.0 1023969
12 march, fri
fri1223:00+13n89560 0.0 1023970
02:00+13nnw88590 0.0 1022942
05:00+13nnw99630 0.0 1022849
08:00+13nnw88610 0.0 1022795
11:00+13nnw44550 0.0 1022686
14:00+14wnw56570 0.0 1021740
17:00+14wnw5567100 0.0 1020672
20:00+14wsw336678 0.0 1020617